Location: Chantarel
(45.1638°N, 1.7873°E)
Time: 14:34:58
(UTC+00:00)

SL-16 R/B - Pass Details

Date: 03 March 2021
Orbit: 843 x 845 km, 71.0° (Epoch: 16 April)

Event Time Altitude Azimuth Distance (km) Brightness Sun altitude
Rises 19:30:03 0° 235° (SW) 3,392 6.0 -19.6°
Reaches altitude 10° 19:32:45 10° 245° (WSW) 2,462 5.4 -20.1°
Maximum altitude 19:37:46 32° 307° (NW) 1,423 3.9 -20.9°
Drops below altitude 10° 19:42:49 10° 10° (N) 2,476 4.7 -21.8°
Sets 19:45:33 0° 21° (NNE) 3,415 5.3 -22.3°
